Flag for USA

Past Weather in Janesville, Wisconsin, USA — Yesterday and Last 2 Weeks

Now
70 °F

Clear.


Feels Like: 70 °F
Forecast: 92 / 69 °F
Wind: No wind

Location: Janesville / Rock County

Current Time: Jul 6, 2020 at 5:25:10 am

Latest Report: Jul 6, 2020 at 4:55 am


Visibility: 10 mi

Pressure: 29.99 "Hg

Humidity: 100%

Dew Point: 70 °F

Location of JanesvilleLocation

Past Weather in Janesville — Graph

°F

Janesville Temperature Yesterday

Maximum temperature yesterday: 91 °F (at 3:45 pm)
Minimum temperature yesterday: 64 °F (at 4:35 am)
Average temperature yesterday: 75 °F

High & Low Weather Summary for the Past Weeks

 TemperatureHumidityPressure
High91 °F (Jul 5, 3:45 pm)100% (Jun 21, 4:15 am)30.09 "Hg (Jun 21, 4:15 am)
Low55 °F (Jun 24, 3:15 am)31% (Jul 1, 2:45 pm)29.74 "Hg (Jun 23, 1:35 am)
Average72 °F82%29.91 "Hg
* Reported Jun 21 4:15 am — Jul 6 4:15 am, Janesville. Weather by CustomWeather, © 2020

Note: Actual official high and low records may vary slightly from our data, if they occured in-between our weather recording intervals... More about our weather records

Janesville Weather History for the Previous 24 Hours

Scroll right to see more
 ConditionsComfort  
Time TempWeatherWind HumidityBarometerVisibility
4:15 am
Mon, Jul 6
70 °FClear.No wind100%29.98 "Hg10 mi
3:55 am70 °FClear.No wind100%29.98 "Hg7 mi
3:35 am72 °FClear.No wind100%29.98 "Hg10 mi
3:15 am72 °FClear.No wind100%29.98 "Hg10 mi
2:55 am72 °FClear.No wind94%29.99 "Hg10 mi
2:35 am72 °FClear.No wind100%29.99 "Hg10 mi
2:15 am72 °FClear.No wind94%29.99 "Hg10 mi
1:55 am72 °FClear.No wind88%29.99 "Hg10 mi
1:35 am72 °FClear.No wind100%29.99 "Hg10 mi
1:15 am72 °FClear.No wind100%30.00 "Hg10 mi
12:55 am72 °FClear.No wind100%30.00 "Hg10 mi
12:35 am73 °FClear.No wind100%30.00 "Hg10 mi
12:15 am73 °FClear.No wind100%30.00 "Hg10 mi
11:55 pm
Sun, Jul 5
72 °FClear.No wind100%30.00 "Hg10 mi
11:35 pm73 °FClear.No wind100%30.00 "Hg10 mi
11:15 pm73 °FClear.No wind100%30.00 "Hg10 mi
10:55 pm73 °FClear.No wind100%30.00 "Hg10 mi
10:35 pm73 °FClear.No wind94%29.99 "Hg10 mi
10:15 pm75 °FClear.No wind78%29.99 "Hg10 mi
9:55 pm77 °FClear.No wind74%29.99 "Hg10 mi
8:45 pm81 °FPassing clouds.No wind66%29.96 "Hg10 mi
7:45 pm84 °FScattered clouds.No wind55%29.95 "Hg10 mi
6:45 pm88 °FScattered clouds.6 mph46%29.95 "Hg10 mi
5:45 pm90 °FScattered clouds.6 mph41%29.95 "Hg10 mi
4:45 pm90 °FScattered clouds.3 mph38%29.96 "Hg10 mi
3:45 pm91 °FBroken clouds.6 mph38%29.97 "Hg10 mi
2:45 pm90 °FPartly sunny.7 mph41%29.99 "Hg10 mi
1:45 pm88 °FBroken clouds.No wind40%30.01 "Hg10 mi
12:45 pm90 °FPartly sunny.No wind41%30.02 "Hg10 mi
11:45 am88 °FScattered clouds.5 mph43%30.02 "Hg10 mi
10:45 am84 °FHaze.5 mph55%30.03 "Hg6 mi
9:45 am82 °FHaze.No wind58%30.03 "Hg6 mi
8:45 am79 °FHaze.No wind65%30.04 "Hg5 mi
7:45 am73 °FFog.No wind100%30.04 "Hg2 mi
6:45 am66 °FFog.No wind100%30.02 "Hg1 mi
5:45 am66 °FFog.No wind100%30.01 "Hg2 mi
Weather by CustomWeather, © 2020

See weather overview